Simultaneous Nadir Overpasses (SNOs) Predictions

Prediction of SNOs between GOES-17 and METOP-C Satellite Orbit:

Table of predicted SNOs for the next 14.0 days since TLE Epoch: 10/8/2022
Index Date Time (GOES-17) GOES-17 Lat,Lon METOP-C Lat,Lon Distance(km) Time Diff (sec)
1 10/08/2022 06:33:39 0.06,-137.32 0.45,-135.65 190.78 80
2 10/09/2022 18:49:52 -0.06,-137.32 0.56,-140.21 329.06 80
3 10/10/2022 18:31:53 -0.06,-137.31 -0.54,-135.21 239.29 80
4 10/12/2022 06:50:56 0.06,-137.30 -0.52,-139.81 286.77 80
5 10/13/2022 06:30:17 0.06,-137.29 0.59,-134.82 281.17 80
6 10/14/2022 18:46:29 -0.05,-137.27 0.42,-139.38 239.90 80
7 10/15/2022 18:28:31 -0.05,-137.26 -0.69,-134.38 327.64 80
8 10/17/2022 06:47:33 0.05,-137.23 -0.35,-138.98 199.41 80
9 10/18/2022 06:26:55 0.04,-137.21 0.76,-133.99 367.78 80
10 10/19/2022 18:43:07 -0.04,-137.19 0.25,-138.55 154.40 80
11 10/20/2022 18:25:09 -0.04,-137.17 -0.87,-133.56 412.59 80
